Location: ?????
(44.4284°N, 135.2222°E)
Time: 13:54:08
(UTC+00:00)

Cosmos 2082 - Pass Details

Date: 19 May 2025
Orbit: 831 x 855 km, 71.0° (Epoch: 20 June)

Event Time Altitude Azimuth Distance (km) Brightness Sun altitude
Exits shadow 18:18:22 - 188° (S) 2,839 6.0 -10.8°
Reaches altitude 10° 18:19:23 10° 186° (S) 2,455 5.7 -10.6°
Maximum altitude 18:24:53 56° 109° (ESE) 1,006 4.3 -9.9°
Drops below altitude 10° 18:30:26 10° 33° (NNE) 2,486 7.5 -9.1°
Sets 18:32:57 0° 29° (NNE) 3,429 8.4 -8.8°
